When you browse on this site, cookies collect data to enhance your experience and personalize the content and advertising you see.
Visit our Privacy Policy to learn more. By continuing to use the site, you agree to this use of cookies and data.
  • In Österreich
  • Länderverzeichnis
  • Für 7 Tage
  • Wassertemperatur
  • Satellitenkarten
  • Wetterkarte
  • News
  • Widgets
  • user-avatar
    Anmelden

    Stündliche Wetter Skuratovo

    Heute, 18 Februar, Montag

    Zeit Temperatur Niederschläge Wind Luftdruck Luftfeuchtigkeit
    00:00 -5°C° 0 mm 4 m/S 740 mmHg 78%
    01:00 -7°C° 0 mm 4 m/S 741 mmHg 79%
    02:00 -6°C° 0 mm 3 m/S 742 mmHg 80%
    03:00 -7°C° 0 mm 3 m/S 742 mmHg 81%
    04:00 -7°C° 0 mm 3 m/S 743 mmHg 83%
    05:00 -7°C° 0 mm 3 m/S 743 mmHg 84%
    06:00 -7°C° 0 mm 3 m/S 744 mmHg 85%
    07:00 -7°C° 0 mm 2 m/S 744 mmHg 86%
    08:00 -7°C° 0 mm 2 m/S 745 mmHg 86%
    09:00 -6°C° 0 mm 2 m/S 745 mmHg 83%
    10:00 -5°C° 0 mm 2 m/S 746 mmHg 79%
    11:00 -5°C° 0 mm 2 m/S 746 mmHg 75%
    12:00 -2°C° 0 mm 1 m/S 746 mmHg 71%
    13:00 -2°C° 0 mm 1 m/S 746 mmHg 68%
    14:00 -1°C° 0 mm 1 m/S 746 mmHg 64%
    15:00 -2°C° 0 mm 1 m/S 746 mmHg 68%
    16:00 -3°C° 0 mm 1 m/S 746 mmHg 72%
    17:00 -3°C° 0 mm 1 m/S 746 mmHg 76%
    18:00 -4°C° 0 mm 1 m/S 746 mmHg 77%
    19:00 -4°C° 0 mm 1 m/S 746 mmHg 78%
    20:00 -6°C° 0 mm 2 m/S 746 mmHg 80%
    21:00 -6°C° 0 mm 2 m/S 745 mmHg 78%
    22:00 -7°C° 0 mm 3 m/S 745 mmHg 77%
    23:00 -7°C° 0 mm 3 m/S 745 mmHg 76%

    Morgen, 19 Februar, Dienstag

    Zeit Temperatur Niederschläge Wind Luftdruck Luftfeuchtigkeit
    00:00 -6°C° 0 mm 3 m/S 744 mmHg 74%
    01:00 -7°C° 0 mm 4 m/S 744 mmHg 73%
    02:00 -7°C° 0 mm 4 m/S 743 mmHg 72%
    03:00 -7°C° 0 mm 4 m/S 743 mmHg 71%
    04:00 -7°C° 0 mm 5 m/S 742 mmHg 71%
    05:00 -6°C° 0 mm 5 m/S 741 mmHg 71%
    06:00 -6°C° 0 mm 5 m/S 741 mmHg 73%
    07:00 -6°C° 0 mm 5 m/S 741 mmHg 76%
    08:00 -6°C° 0 mm 5 m/S 740 mmHg 79%
    09:00 -5°C° 0 mm 5 m/S 740 mmHg 78%
    10:00 -2°C° 0 mm 5 m/S 739 mmHg 76%
    11:00 -1°C° 0 mm 5 m/S 739 mmHg 75%
    12:00 -1°C° 0 mm 5 m/S 738 mmHg 74%
    13:00 -1°C° 0 mm 5 m/S 738 mmHg 74%
    14:00 0°C° 0 mm 5 m/S 737 mmHg 74%
    15:00 -1°C° 0 mm 5 m/S 737 mmHg 76%
    16:00 -1°C° 0 mm 5 m/S 736 mmHg 79%
    17:00 -2°C° 0 mm 5 m/S 735 mmHg 81%
    18:00 -2°C° 0 mm 5 m/S 735 mmHg 83%
    19:00 -2°C° 0 mm 5 m/S 734 mmHg 85%
    20:00 -2°C° 0 mm 5 m/S 734 mmHg 87%
    21:00 -2°C° 0 mm 5 m/S 733 mmHg 88%
    22:00 -2°C° 0 mm 5 m/S 733 mmHg 89%
    23:00 -1°C° 0 mm 5 m/S 732 mmHg 89%

    übermorgen, 20 Februar, Mittwoch

    Zeit Temperatur Niederschläge Wind Luftdruck Luftfeuchtigkeit
    00:00 -1°C° 0 mm 5 m/S 731 mmHg 90%
    01:00 -1°C° 0 mm 5 m/S 731 mmHg 90%
    02:00 -1°C° 0 mm 5 m/S 730 mmHg 90%
    03:00 -1°C° 0.4 mm 5 m/S 730 mmHg 90%
    04:00 -1°C° 0.4 mm 5 m/S 729 mmHg 90%
    05:00 -1°C° 0.4 mm 5 m/S 729 mmHg 90%
    06:00 -1°C° 0.3 mm 5 m/S 729 mmHg 90%
    07:00 0°C° 0.3 mm 4 m/S 729 mmHg 91%
    08:00 0°C° 0.3 mm 4 m/S 729 mmHg 92%
    09:00 0°C° 0.1 mm 4 m/S 729 mmHg 88%
    10:00 0°C° 0.1 mm 5 m/S 729 mmHg 84%
    11:00 +1°C° 0.1 mm 5 m/S 729 mmHg 80%
    12:00 +1°C° 0.2 mm 5 m/S 729 mmHg 81%
    13:00 0°C° 0.2 mm 5 m/S 728 mmHg 83%
    14:00 0°C° 0.2 mm 5 m/S 728 mmHg 84%
    15:00 0°C° 0.3 mm 5 m/S 728 mmHg 84%
    16:00 0°C° 0.3 mm 5 m/S 728 mmHg 84%
    17:00 0°C° 0.3 mm 5 m/S 728 mmHg 84%
    18:00 -1°C° 0.2 mm 5 m/S 728 mmHg 81%
    19:00 -2°C° 0.2 mm 5 m/S 728 mmHg 77%
    20:00 -4°C° 0.2 mm 5 m/S 728 mmHg 74%
    21:00 -4°C° 0.1 mm 5 m/S 729 mmHg 76%
    22:00 -5°C° 0.1 mm 5 m/S 729 mmHg 78%
    23:00 -5°C° 0.1 mm 5 m/S 729 mmHg 80%

    21 Februar, Donnerstag

    Zeit Temperatur Niederschläge Wind Luftdruck Luftfeuchtigkeit
    00:00 -6°C° 0.2 mm 5 m/S 729 mmHg 80%
    01:00 -6°C° 0.2 mm 6 m/S 729 mmHg 81%
    02:00 -6°C° 0.2 mm 6 m/S 729 mmHg 81%
    03:00 -6°C° 0.3 mm 6 m/S 730 mmHg 81%
    04:00 -6°C° 0.3 mm 6 m/S 730 mmHg 81%
    05:00 -6°C° 0.3 mm 6 m/S 730 mmHg 81%
    06:00 -6°C° 0.2 mm 6 m/S 731 mmHg 78%
    07:00 -8°C° 0.2 mm 6 m/S 731 mmHg 75%
    08:00 -8°C° 0.2 mm 7 m/S 732 mmHg 73%
    09:00 -8°C° 0.1 mm 7 m/S 733 mmHg 72%
    10:00 -8°C° 0.1 mm 7 m/S 734 mmHg 72%
    11:00 -9°C° 0.1 mm 7 m/S 735 mmHg 72%
    12:00 -9°C° 0.1 mm 7 m/S 736 mmHg 71%
    13:00 -8°C° 0.1 mm 7 m/S 737 mmHg 71%
    14:00 -8°C° 0.1 mm 7 m/S 738 mmHg 70%
    15:00 -9°C° 0.1 mm 6 m/S 738 mmHg 71%
    16:00 -9°C° 0.1 mm 6 m/S 739 mmHg 72%
    17:00 -10°C° 0.1 mm 6 m/S 740 mmHg 72%
    18:00 -10°C° 0.1 mm 6 m/S 741 mmHg 72%
    19:00 -11°C° 0.1 mm 6 m/S 742 mmHg 72%
    20:00 -11°C° 0.1 mm 6 m/S 743 mmHg 71%
    21:00 -11°C° 0 mm 5 m/S 743 mmHg 71%
    22:00 -12°C° 0 mm 5 m/S 744 mmHg 72%
    23:00 -12°C° 0 mm 5 m/S 745 mmHg 72%

    22 Februar, Freitag

    Zeit Temperatur Niederschläge Wind Luftdruck Luftfeuchtigkeit
    00:00 -12°C° 0 mm 5 m/S 745 mmHg 73%
    01:00 -13°C° 0 mm 5 m/S 746 mmHg 73%
    02:00 -13°C° 0 mm 5 m/S 746 mmHg 74%
    03:00 -13°C° 0 mm 5 m/S 747 mmHg 75%
    04:00 -14°C° 0 mm 5 m/S 748 mmHg 76%
    05:00 -14°C° 0 mm 5 m/S 748 mmHg 77%
    06:00 -14°C° 0 mm 4 m/S 749 mmHg 75%
    07:00 -14°C° 0 mm 4 m/S 750 mmHg 73%
    08:00 -14°C° 0 mm 4 m/S 751 mmHg 71%
    09:00 -12°C° 0 mm 4 m/S 752 mmHg 68%
    10:00 -10°C° 0 mm 3 m/S 752 mmHg 65%
    11:00 -9°C° 0 mm 3 m/S 753 mmHg 62%
    12:00 -8°C° 0 mm 3 m/S 753 mmHg 61%
    13:00 -7°C° 0 mm 3 m/S 754 mmHg 60%
    14:00 -7°C° 0 mm 3 m/S 754 mmHg 59%
    15:00 -7°C° 0 mm 3 m/S 754 mmHg 63%
    16:00 -8°C° 0 mm 3 m/S 754 mmHg 68%
    17:00 -7°C° 0 mm 2 m/S 755 mmHg 72%
    18:00 -8°C° 0 mm 2 m/S 755 mmHg 75%
    19:00 -8°C° 0 mm 2 m/S 755 mmHg 78%
    20:00 -9°C° 0 mm 2 m/S 755 mmHg 82%
    21:00 -9°C° 0 mm 2 m/S 755 mmHg 82%
    22:00 -9°C° 0 mm 2 m/S 755 mmHg 82%
    23:00 -9°C° 0 mm 2 m/S 755 mmHg 82%

    23 Februar, Samstag

    Zeit Temperatur Niederschläge Wind Luftdruck Luftfeuchtigkeit
    00:00 -9°C° 0 mm 2 m/S 755 mmHg 82%
    01:00 -8°C° 0 mm 1 m/S 754 mmHg 81%
    02:00 -9°C° 0 mm 1 m/S 754 mmHg 80%
    03:00 -9°C° 0 mm 2 m/S 753 mmHg 77%
    04:00 -8°C° 0 mm 2 m/S 753 mmHg 75%
    05:00 -8°C° 0 mm 2 m/S 752 mmHg 72%
    06:00 -8°C° 0.5 mm 2 m/S 751 mmHg 79%
    07:00 -9°C° 0.5 mm 3 m/S 751 mmHg 87%
    08:00 -9°C° 0.5 mm 3 m/S 750 mmHg 94%
    09:00 -8°C° 1 mm 3 m/S 749 mmHg 94%
    10:00 -8°C° 1 mm 3 m/S 749 mmHg 94%
    11:00 -7°C° 1 mm 3 m/S 748 mmHg 94%
    12:00 -7°C° 0.3 mm 3 m/S 748 mmHg 93%
    13:00 -6°C° 0.3 mm 3 m/S 747 mmHg 92%
    14:00 -5°C° 0.3 mm 3 m/S 747 mmHg 92%
    15:00 -5°C° 0.1 mm 3 m/S 746 mmHg 93%
    16:00 -4°C° 0.1 mm 3 m/S 746 mmHg 94%
    17:00 -3°C° 0.1 mm 2 m/S 746 mmHg 95%
    18:00 -2°C° 0.1 mm 2 m/S 747 mmHg 95%
    19:00 -2°C° 0.1 mm 2 m/S 747 mmHg 96%
    20:00 -2°C° 0.1 mm 2 m/S 747 mmHg 97%
    21:00 -1°C° 0 mm 2 m/S 747 mmHg 97%
    22:00 -1°C° 0 mm 2 m/S 747 mmHg 98%
    23:00 -1°C° 0 mm 2 m/S 747 mmHg 98%
    Mehr zeigen